CW0133 Weather Reports


time (UTC)temp
C
wind
direction
speed
KPH
gust
KPH
rain 1hr
cm
rain 24hr
cm
rain mn
cm
humidity
%
barometer
mb
20260510072504 20 0 0.0 0.0 0.00 0.08 0.00 87 1012.2
20260510072004 20 0 0.0 0.0 0.00 0.08 0.00 86 1012.3
20260510071504 20 0 0.0 0.0 0.00 0.08 0.00 86 1012.3
20260510071004 20 113 0.0 3.2 0.00 0.08 0.00 86 1012.2
20260510070524 20 113 0.0 3.2 0.00 0.08 0.00 86 1012.2
20260510070004 20 113 1.6 3.2 0.00 0.08 0.00 86 1012.1
20260510065504 20 113 1.6 3.2 0.00 0.08 0.00 86 1012.0
20260510065004 20 113 0.0 3.2 0.00 0.08 0.00 86 1012.1
20260510064504 20 113 0.0 1.6 0.00 0.08 0.00 86 1012.1
20260510064004 20 0 0.0 0.0 0.00 0.08 0.00 86 1012.0
20260510063504 20 0 0.0 0.0 0.00 0.08 0.00 86 1012.1
20260510063005 20 113 0.0 1.6 0.00 0.08 0.00 86 1012.1
20260510062504 20 113 0.0 3.2 0.00 0.08 0.00 86 1012.0
20260510062004 20 113 1.6 3.2 0.00 0.08 0.00 85 1012.0
20260510061504 21 113 1.6 3.2 0.00 0.08 0.00 85 1011.9
20260510061004 21 113 0.0 1.6 0.00 0.08 0.00 85 1012.0
20260510060504 21 113 0.0 3.2 0.00 0.08 0.00 85 1011.9
20260510060004 21 113 0.0 3.2 0.00 0.08 0.00 85 1011.9
20260510055525 21 113 0.0 3.2 0.00 0.08 0.00 84 1012.0
20260510055004 21 0 0.0 0.0 0.00 0.08 0.00 84 1011.9
20260510054504 21 0 0.0 0.0 0.00 0.08 0.00 84 1011.9
20260510054004 21 0 0.0 0.0 0.00 0.08 0.00 85 1011.8
20260510053503 21 0 0.0 0.0 0.00 0.08 0.00 84 1011.9
20260510053004 21 0 0.0 0.0 0.00 0.08 0.00 84 1012.0
20260510052504 21 113 0.0 3.2 0.00 0.08 0.00 84 1011.9
20260510052003 21 113 1.6 3.2 0.00 0.08 0.00 83 1011.8
20260510051524 22 113 1.6 6.4 0.00 0.08 0.00 84 1011.9
20260510051003 22 113 0.0 6.4 0.00 0.08 0.00 83 1011.8
20260510050504 22 113 0.0 1.6 0.00 0.08 0.00 83 1011.8
20260510050004 22 0 0.0 0.0 0.00 0.08 0.00 83 1011.8
20260510045503 22 0 0.0 0.0 0.00 0.08 0.08 83 1011.8
20260510045004 22 0 0.0 0.0 0.00 0.08 0.08 83 1011.8
20260510044504 22 113 0.0 1.6 0.00 0.08 0.08 82 1011.7
20260510044004 22 113 0.0 1.6 0.00 0.08 0.08 82 1011.7
20260510043504 22 0 0.0 0.0 0.00 0.08 0.08 82 1011.8
20260510043005 23 113 0.0 1.6 0.00 0.08 0.08 81 1011.6
20260510042504 23 113 0.0 1.6 0.00 0.08 0.08 81 1011.7
20260510042004 23 113 0.0 1.6 0.00 0.08 0.08 81 1011.6
20260510041503 23 113 0.0 1.6 0.00 0.08 0.08 81 1011.6
20260510041003 23 113 0.0 1.6 0.00 0.08 0.08 81 1011.5
20260510040503 23 113 0.0 1.6 0.00 0.08 0.08 81 1011.5
20260510040024 23 113 0.0 1.6 0.00 0.08 0.08 80 1011.5
20260510035503 23 113 0.0 1.6 0.00 0.08 0.08 80 1011.5
20260510035003 24 113 0.0 1.6 0.00 0.08 0.08 80 1011.4
20260510034504 24 113 0.0 1.6 0.00 0.08 0.08 80 1011.5
20260510034004 24 113 0.0 1.6 0.00 0.08 0.08 79 1011.4
20260510033503 24 113 0.0 1.6 0.00 0.08 0.08 79 1011.3
20260510033024 25 0 0.0 0.0 0.00 0.08 0.08 79 1011.3
20260510032524 25 0 0.0 0.0 0.00 0.08 0.08 79 1011.2
20260510032003 25 113 0.0 1.6 0.00 0.08 0.08 79 1011.1
20260510031503 25 113 1.6 3.2 0.00 0.08 0.08 79 1011.1
20260510031004 25 113 1.6 3.2 0.00 0.08 0.08 79 1011.0
20260510030504 25 113 1.6 3.2 0.00 0.08 0.08 79 1010.9
20260510030025 25 113 1.6 6.4 0.00 0.08 0.08 79 1010.8
20260510025503 25 113 3.2 6.4 0.00 0.08 0.08 78 1010.7
20260510025025 25 113 3.2 6.4 0.00 0.08 0.08 78 1010.6
20260510024504 26 113 3.2 8.0 0.00 0.08 0.08 78 1010.5
20260510024004 26 113 3.2 9.7 0.00 0.08 0.08 77 1010.5
20260510023503 26 113 3.2 9.7 0.00 0.08 0.08 77 1010.5
20260510023004 26 113 3.2 6.4 0.00 0.08 0.08 77 1010.5
20260510022504 26 113 3.2 8.0 0.00 0.08 0.08 76 1010.5
20260510022003 26 113 1.6 8.0 0.00 0.08 0.08 75 1010.5
20260510021503 26 113 3.2 8.0 0.00 0.08 0.08 75 1010.4
20260510021003 27 113 3.2 8.0 0.00 0.08 0.08 75 1010.3
20260510020503 27 113 3.2 8.0 0.00 0.08 0.08 74 1010.3
20260510020004 27 113 3.2 6.4 0.00 0.08 0.08 73 1010.2
20260510015504 27 113 3.2 8.0 0.00 0.08 0.08 73 1010.2
20260510015003 27 113 3.2 8.0 0.00 0.08 0.08 73 1010.1
20260510014504 27 113 3.2 8.0 0.00 0.08 0.08 72 1010.1
20260510014003 27 113 1.6 8.0 0.00 0.08 0.08 72 1010.1
20260510013503 28 113 1.6 6.4 0.00 0.08 0.08 71 1010.0
20260510013003 28 113 1.6 6.4 0.00 0.08 0.08 70 1009.9
20260510012504 28 113 1.6 3.2 0.00 0.08 0.08 70 1009.9
20260510012024 28 113 0.0 3.2 0.00 0.08 0.08 69 1009.8
20260510011503 28 113 1.6 6.4 0.00 0.08 0.08 69 1009.8
20260510011003 28 113 1.6 6.4 0.00 0.08 0.08 68 1009.7
20260510010524 28 113 3.2 8.0 0.00 0.08 0.08 68 1009.7
20260510010004 29 113 3.2 8.0 0.00 0.08 0.08 67 1009.6
20260510005503 29 113 3.2 9.7 0.00 0.08 0.08 67 1009.7
20260510005004 29 113 3.2 9.7 0.00 0.08 0.08 67 1009.6
20260510004524 29 114 6.4 9.7 0.00 0.08 0.08 66 1009.6
20260510004004 30 114 6.4 12.9 0.00 0.08 0.08 66 1009.6
20260510003503 30 114 3.2 12.9 0.00 0.08 0.08 66 1009.5
20260510003004 30 114 6.4 9.7 0.00 0.08 0.08 65 1009.4
20260510002503 30 114 6.4 16.1 0.00 0.08 0.08 64 1009.4
20260510002003 30 117 8.0 16.1 0.00 0.08 0.08 64 1009.4
20260510001524 30 121 6.4 16.1 0.00 0.08 0.08 63 1009.4
20260510001003 30 123 6.4 16.1 0.00 0.08 0.08 62 1009.3
20260510000503 30 122 6.4 12.9 0.00 0.08 0.08 61 1009.2
20260510000024 30 121 6.4 12.9 0.00 0.08 0.08 60 1009.2
20260509235503 30 121 6.4 12.9 0.00 0.08 0.08 58 1009.2
20260509235003 30 120 6.4 9.7 0.00 0.08 0.08 57 1009.1
20260509234503 31 118 8.0 12.9 0.00 0.08 0.08 57 1009.1
20260509234003 31 117 8.0 12.9 0.00 0.08 0.08 56 1009.0
20260509233504 31 115 6.4 12.9 0.00 0.08 0.08 55 1009.0
20260509233003 31 126 6.4 12.9 0.00 0.08 0.08 53 1009.0
20260509232525 31 137 6.4 12.9 0.00 0.08 0.08 52 1009.1
20260509232004 31 144 6.4 11.3 0.00 0.08 0.08 51 1009.0
20260509231524 31 149 3.2 9.7 0.00 0.08 0.08 49 1009.0
20260509231003 31 155 3.2 9.7 0.00 0.08 0.08 46 1009.0
20260509230503 31 152 6.4 11.3 0.00 0.08 0.08 45 1009.1
20260509230024 31 138 6.4 12.9 0.00 0.08 0.08 44 1009.1
20260509225503 32 119 8.0 12.9 0.00 0.08 0.08 49 1009.1
20260509225003 32 111 6.4 19.3 0.00 0.08 0.08 51 1009.1
20260509224503 32 109 8.0 19.3 0.00 0.08 0.08 47 1009.0
20260509224004 32 109 9.7 17.7 0.00 0.08 0.08 47 1009.0
20260509223503 32 107 8.0 17.7 0.00 0.08 0.08 48 1009.0
20260509223024 32 125 8.0 17.7 0.00 0.08 0.08 52 1009.0
20260509222503 32 168 6.4 11.3 0.00 0.08 0.08 51 1009.0
20260509222004 32 187 3.2 9.7 0.00 0.08 0.08 52 1008.9
20260509221503 32 190 6.4 11.3 0.00 0.08 0.08 55 1008.8
20260509221003 31 192 6.4 11.3 0.00 0.08 0.08 54 1008.8
20260509220503 31 192 6.4 9.7 0.00 0.08 0.08 55 1008.7
20260509220003 31 191 8.0 12.9 0.00 0.08 0.08 57 1008.6
20260509215503 31 191 6.4 12.9 0.00 0.08 0.08 57 1008.7
20260509215024 31 191 3.2 11.3 0.00 0.08 0.08 55 1008.8
20260509214503 30 191 3.2 8.0 0.00 0.08 0.08 55 1008.9
20260509214003 30 195 6.4 19.3 0.00 0.08 0.08 57 1008.9
20260509213503 30 180 9.7 25.7 0.00 0.08 0.08 57 1009.0
20260509213003 29 153 9.7 25.7 0.00 0.08 0.08 57 1009.2
20260509212503 28 140 9.7 17.7 0.00 0.08 0.08 60 1009.2
20260509212003 28 148 11.3 27.4 0.00 0.08 0.08 57 1009.3
20260509211504 27 147 16.1 37.0 0.00 0.08 0.08 59 1009.5
20260509211024 27 149 17.7 37.0 0.00 0.08 0.08 60 1009.8
20260509210524 26 140 19.3 37.0 0.00 0.08 0.08 61 1009.8
20260509210003 25 127 19.3 37.0 0.00 0.08 0.08 57 1010.0
20260509205503 25 122 19.3 41.8 0.00 0.08 0.08 57 1009.9
20260509205004 25 114 19.3 45.1 0.00 0.08 0.08 55 1009.8
20260509204504 26 104 20.9 48.3 0.00 0.08 0.08 57 1010.0
20260509204025 27 94 19.3 57.9 0.00 0.08 0.08 53 1010.0
20260509203504 30 86 16.1 57.9 0.00 0.08 0.08 47 1009.9
20260509203004 32 74 16.1 46.7 0.00 0.08 0.08 41 1010.0
20260509202504 34 27 8.0 29.0 0.00 0.08 0.08 52 1010.1
20260509202004 35 326 6.4 29.0 0.00 0.08 0.08 46 1010.0
20260509201525 35 284 6.4 12.9 0.00 0.08 0.08 45 1009.7
20260509201004 35 253 3.2 12.9 0.00 0.08 0.08 47 1009.6
20260509200504 35 209 3.2 12.9 0.00 0.08 0.08 50 1009.6
20260509200025 35 208 6.4 16.1 0.00 0.08 0.08 47 1009.8
20260509195504 35 197 6.4 16.1 0.00 0.08 0.08 47 1009.9
20260509195004 35 185 3.2 11.3 0.00 0.08 0.08 50 1009.8
20260509194525 35 195 3.2 16.1 0.00 0.08 0.08 49 1009.9
20260509194004 34 217 6.4 16.1 0.00 0.08 0.08 51 1009.9
20260509193525 34 231 6.4 11.3 0.00 0.08 0.08 51 1010.0
20260509193004 34 198 6.4 12.9 0.00 0.08 0.08 50 1010.1
20260509192504 33 171 6.4 12.9 0.00 0.08 0.08 54 1010.2
20260509192004 33 195 6.4 11.3 0.00 0.08 0.08 58 1010.2
20260509191504 33 220 3.2 9.7 0.00 0.08 0.08 58 1010.2
20260509191004 33 236 3.2 9.7 0.00 0.08 0.08 54 1010.4
20260509190503 33 226 3.2 11.3 0.00 0.08 0.08 56 1010.5
20260509190004 33 205 6.4 11.3 0.00 0.08 0.08 56 1010.5
20260509185504 33 187 6.4 19.3 0.00 0.08 0.08 55 1010.6
20260509185004 32 226 6.4 19.3 0.00 0.08 0.08 56 1010.7
20260509184504 32 333 3.2 12.9 0.00 0.08 0.08 59 1010.8
20260509184004 32 253 3.2 11.3 0.00 0.08 0.08 56 1010.9
20260509183504 33 214 6.4 12.9 0.00 0.08 0.08 59 1011.0
20260509183004 32 229 6.4 12.9 0.00 0.08 0.08 58 1011.1
20260509182504 32 236 6.4 12.9 0.00 0.08 0.08 61 1011.3
20260509182004 32 226 6.4 12.9 0.00 0.08 0.08 62 1011.3
20260509181504 32 216 6.4 12.9 0.00 0.08 0.08 62 1011.3
20260509181004 32 198 8.0 17.7 0.00 0.08 0.08 64 1011.4
20260509180504 31 199 8.0 17.7 0.00 0.08 0.08 63 1011.3
20260509180004 31 203 8.0 19.3 0.00 0.08 0.08 68 1011.4
20260509175504 31 206 8.0 19.3 0.00 0.08 0.08 65 1011.5
20260509175003 31 299 3.2 12.9 0.00 0.08 0.08 70 1011.6
20260509174504 31 190 6.4 16.1 0.00 0.08 0.08 67 1011.8
20260509174004 30 170 6.4 16.1 0.00 0.08 0.08 71 1011.9
20260509173504 30 170 3.2 16.1 0.00 0.08 0.08 73 1011.9
20260509173003 30 128 6.4 16.1 0.00 0.08 0.08 73 1012.0
20260509172504 30 120 8.0 19.3 0.00 0.08 0.08 75 1012.1
20260509172003 29 149 8.0 19.3 0.00 0.08 0.08 76 1012.1
20260509171504 28 183 8.0 16.1 0.00 0.08 0.08 75 1012.0
20260509171004 28 168 3.2 16.1 0.00 0.08 0.08 76 1012.0
20260509170504 28 131 6.4 12.9 0.00 0.08 0.08 77 1012.0
20260509170004 28 152 6.4 12.9 0.00 0.08 0.08 78 1012.0
20260509165504 27 176 3.2 11.3 0.00 0.08 0.08 81 1012.2
20260509165004 27 179 3.2 11.3 0.00 0.08 0.08 78 1012.1
20260509164504 27 179 6.4 12.9 0.00 0.08 0.08 79 1012.1
20260509164003 27 192 6.4 12.9 0.00 0.08 0.08 80 1012.2
20260509163504 27 224 3.2 11.3 0.00 0.08 0.08 81 1012.2
20260509163004 27 254 3.2 11.3 0.00 0.08 0.08 81 1012.2
20260509162504 27 258 3.2 9.7 0.00 0.08 0.08 82 1012.2
20260509162004 26 229 6.4 16.1 0.00 0.08 0.08 84 1012.2
20260509161504 26 186 6.4 20.9 0.00 0.08 0.08 86 1012.2
20260509161003 26 184 6.4 20.9 0.00 0.08 0.08 88 1012.1
20260509160503 26 202 3.2 11.3 0.00 0.08 0.08 90 1012.0
20260509160004 25 192 6.4 11.3 0.00 0.08 0.08 91 1012.1
20260509155504 25 181 6.4 12.9 0.00 0.08 0.08 92 1012.1
20260509155003 25 181 6.4 12.9 0.00 0.08 0.08 93 1012.0
20260509154504 25 184 6.4 11.3 0.00 0.08 0.08 94 1012.0
20260509154003 25 189 3.2 12.9 0.00 0.08 0.08 94 1012.2
20260509153503 25 204 6.4 12.9 0.00 0.08 0.08 94 1012.3
20260509153024 25 200 8.0 17.7 0.00 0.08 0.08 95 1012.3
20260509152504 25 187 8.0 17.7 0.00 0.08 0.08 95 1012.3
20260509152003 24 162 8.0 12.9 0.00 0.08 0.08 95 1012.4
20260509151503 24 146 6.4 16.1 0.00 0.08 0.08 95 1012.4
20260509151004 24 160 6.4 16.1 0.00 0.08 0.08 95 1012.5
20260509150504 24 159 6.4 16.1 0.00 0.08 0.08 95 1012.3
20260509150003 23 160 8.0 19.3 0.00 0.08 0.08 95 1012.4
20260509145504 23 164 8.0 19.3 0.00 0.08 0.08 95 1012.3
20260509145004 23 153 8.0 19.3 0.00 0.08 0.08 95 1012.2
20260509144504 23 130 6.4 11.3 0.00 0.08 0.08 95 1012.1
20260509144003 23 122 3.2 8.0 0.00 0.08 0.08 95 1012.2
20260509143503 23 122 1.6 8.0 0.00 0.08 0.08 94 1012.1
20260509143003 23 122 1.6 8.0 0.00 0.08 0.08 94 1011.9
20260509142524 23 122 3.2 8.0 0.00 0.08 0.08 94 1011.9
20260509142003 23 111 3.2 9.7 0.00 0.08 0.08 94 1011.8
20260509141503 23 69 3.2 11.3 0.00 0.08 0.08 94 1011.8
20260509141004 23 14 3.2 11.3 0.00 0.08 0.08 94 1011.9
20260509140503 22 360 1.6 6.4 0.00 0.08 0.08 94 1012.0
20260509140003 22 360 0.0 3.2 0.00 0.08 0.08 94 1012.1
20260509135504 22 0 0.0 0.0 0.00 0.08 0.08 94 1012.1
20260509135003 22 360 0.0 3.2 0.00 0.08 0.08 94 1012.1
20260509134503 22 360 0.0 3.2 0.00 0.08 0.08 94 1012.1
20260509134003 22 360 1.6 3.2 0.00 0.08 0.08 94 1012.2
20260509133503 22 360 1.6 3.2 0.00 0.08 0.08 94 1012.2
20260509133004 22 360 1.6 3.2 0.00 0.08 0.08 94 1012.2
20260509132524 22 360 0.0 3.2 0.00 0.08 0.08 94 1012.4
20260509132004 22 360 0.0 3.2 0.00 0.08 0.08 94 1012.3
20260509131503 22 360 1.6 6.4 0.03 0.08 0.08 94 1012.1
20260509131003 22 360 1.6 6.4 0.03 0.08 0.08 94 1012.2
20260509130503 22 360 0.0 6.4 0.03 0.08 0.08 94 1012.0
20260509130004 22 360 1.6 6.4 0.03 0.08 0.08 94 1011.9
20260509125503 22 360 0.0 6.4 0.03 0.08 0.08 94 1011.7
20260509125003 22 360 1.6 8.0 0.03 0.08 0.08 94 1011.6
20260509124503 22 360 3.2 8.0 0.03 0.08 0.08 94 1011.6
20260509124024 22 360 3.2 8.0 0.03 0.08 0.08 94 1011.6
20260509123503 22 360 1.6 8.0 0.03 0.08 0.08 94 1011.5
20260509123003 22 360 1.6 8.0 0.03 0.08 0.08 94 1011.6
20260509122503 22 360 1.6 8.0 0.03 0.08 0.08 94 1011.6
20260509122003 22 360 3.2 11.3 0.03 0.08 0.08 94 1011.8
20260509121503 22 2 6.4 11.3 0.00 0.05 0.05 94 1011.8
20260509121003 22 6 3.2 9.7 0.00 0.05 0.05 94 1012.1
20260509120503 22 8 3.2 9.7 0.00 0.05 0.05 93 1011.9
20260509120004 22 9 3.2 8.0 0.00 0.05 0.05 93 1011.9
20260509115504 22 9 3.2 8.0 0.00 0.05 0.05 93 1012.0
20260509115003 22 7 3.2 9.7 0.00 0.05 0.05 93 1011.9
20260509114503 22 5 1.6 9.7 0.00 0.05 0.05 93 1011.9
20260509114003 22 5 1.6 3.2 0.00 0.05 0.05 93 1012.2
20260509113503 22 5 1.6 6.4 0.00 0.05 0.05 93 1012.3
20260509113003 23 5 1.6 6.4 0.00 0.05 0.05 93 1012.5
20260509112503 23 5 1.6 6.4 0.00 0.05 0.05 93 1012.4
20260509112003 23 5 1.6 8.0 0.00 0.05 0.05 93 1012.7
20260509111524 23 5 3.2 11.3 0.00 0.05 0.05 93 1012.7
20260509111003 23 360 6.4 11.3 0.00 0.05 0.05 93 1012.8
20260509110524 23 358 6.4 11.3 0.00 0.05 0.05 93 1012.8
20260509110003 23 352 6.4 11.3 0.00 0.05 0.05 93 1012.9
20260509105503 23 342 6.4 11.3 0.00 0.05 0.05 93 1012.8
20260509105003 23 341 6.4 11.3 0.00 0.05 0.05 93 1012.9
20260509104503 23 318 6.4 11.3 0.00 0.05 0.05 93 1012.9
20260509104003 23 204 3.2 11.3 0.00 0.05 0.05 93 1012.8
20260509103503 23 192 3.2 8.0 0.00 0.05 0.05 93 1012.8
20260509103004 22 192 3.2 6.4 0.00 0.05 0.05 93 1012.8
20260509102503 22 192 1.6 6.4 0.00 0.05 0.05 93 1012.5
20260509102003 22 191 0.0 1.6 0.00 0.05 0.05 93 1012.2
20260509101503 22 191 0.0 3.2 0.03 0.05 0.05 93 1012.0
20260509101003 22 191 0.0 3.2 0.03 0.05 0.05 93 1011.9
20260509100503 23 191 0.0 3.2 0.03 0.05 0.05 93 1011.9
20260509100004 23 191 0.0 3.2 0.03 0.05 0.05 93 1011.7
20260509095503 23 191 0.0 3.2 0.03 0.05 0.05 93 1011.6
20260509095003 23 191 0.0 3.2 0.03 0.05 0.05 93 1011.4
20260509094503 23 191 1.6 3.2 0.05 0.05 0.05 93 1011.4
20260509094003 23 191 0.0 3.2 0.05 0.05 0.05 93 1011.4
20260509093503 23 191 1.6 3.2 0.05 0.05 0.05 93 1011.6
20260509093003 23 191 0.0 3.2 0.05 0.05 0.05 93 1011.6
20260509092503 23 191 0.0 1.6 0.05 0.05 0.05 92 1011.6
20260509092024 23 0 0.0 0.0 0.05 0.05 0.05 92 1011.4
20260509091503 23 191 0.0 3.2 0.03 0.03 0.03 92 1011.3
20260509091003 23 191 0.0 6.4 0.03 0.03 0.03 92 1011.2
20260509090524 23 191 0.0 6.4 0.03 0.03 0.03 92 1011.3
20260509090003 23 191 0.0 3.2 0.03 0.03 0.03 92 1011.3
20260509085503 23 191 0.0 3.2 0.03 0.03 0.03 92 1011.4
20260509085003 23 191 0.0 3.2 0.03 0.03 0.03 92 1011.4
20260509084504 23 191 0.0 3.2 0.00 0.00 0.00 92 1011.5
20260509084004 23 191 1.6 6.4 0.00 0.00 0.00 92 1011.5
20260509083504 23 191 1.6 8.0 0.00 0.00 0.00 92 1011.5
20260509083025 23 191 1.6 8.0 0.00 0.00 0.00 92 1011.6
20260509082504 23 192 1.6 9.7 0.00 0.00 0.00 92 1011.6
20260509082004 23 194 1.6 9.7 0.00 0.00 0.00 92 1011.5
20260509081525 23 195 1.6 6.4 0.00 0.00 0.00 92 1011.6
20260509081004 23 195 0.0 3.2 0.00 0.00 0.00 92 1011.8
20260509080504 23 195 0.0 3.2 0.00 0.00 0.00 92 1011.6
20260509080004 23 195 0.0 1.6 0.00 0.00 0.00 92 1011.6
20260509075504 23 195 0.0 6.4 0.00 0.00 0.00 92 1011.4
20260509075004 23 195 1.6 6.4 0.00 0.00 0.00 92 1011.4
20260509074504 23 195 1.6 6.4 0.00 0.00 0.00 92 1011.4
20260509074004 23 195 1.6 6.4 0.00 0.00 0.00 92 1011.5
20260509073504 23 195 1.6 3.2 0.00 0.00 0.00 91 1011.5
20260509073004 23 195 0.0 3.2 0.00 0.00 0.00 91 1011.6